Weather History for Eastover, SC

Change the Weather History Date:

Thursday, February 20, 2014

  Actual Average Record
Temperature  
Mean Temperature 67 °F -  
Max Temperature 82 °F 58 °F 82 °F (2014)
Min Temperature 52 °F 38 °F 24 °F (2009)
Cooling Degree Days 2    
Growing Degree Days 17 (Base 50)    
Moisture  
Dew Point 55 °F    
Average Humidity 71    
Maximum Humidity 95    
Minimum Humidity 31    
Precipitation  
Precipitation 0.00 in - - ()
Sea Level Pressure  
Sea Level Pressure 30.10 in    
Wind  
Wind Speed 6 mph (SSE)    
Max Wind Speed 16 mph    
Max Gust Speed 26 mph    
Visibility 9 miles    
Events      
Averages and records for this station are not official NWS values.
T = Trace of Precipitation, MM = Missing Value Source: NWS Daily Summary

Daily Weather History Graph

Daily Weather History Graph

Search for Another Location

Airport:

Trip Planner

Search our weather history database for the weather conditions in past years. The results will help you decide how hot, cold, wet, or windy it might be!

Date:

Astronomy

Feb. 20, 2014 Rise Set
Actual Time 7:02 AM EST 6:11 PM EST
Civil Twilight 6:37 AM EST 6:37 PM EST
Nautical Twilight 6:07 AM EST 7:06 PM EST
Astronomical Twilight 5:39 AM EST 7:35 PM EST
Moon 11:46 PM EST (2/20) 10:00 AM EST (2/20)
Length of Visible Light 12h 00m
Length of Day
11h 09m
Waning Gibbous, 71% of the Moon is Illuminated
Feb 20
Waning Gibbous
Feb 22
Last Quarter
Mar 1
New
Mar 8
First Quarter
Mar 16
Full

Hourly Weather History & Observations

Time (EST) Temp. Heat Index Dew Point Humidity Pressure Visibility Wind Dir Wind Speed Gust Speed Precip Events Conditions
12:58 AM 55.6 °F - 53.2 °F 92% 30.10 in 10.0 mi ESE 2.3 mph - N/A   Scattered Clouds
1:58 AM 54.5 °F - 52.9 °F 94% 30.11 in 10.0 mi Calm Calm - N/A   Mostly Cloudy
2:58 AM 55.4 °F - 53.6 °F 94% 30.11 in 6.0 mi SE 4.6 mph - N/A   Clear
3:58 AM 55.4 °F - 52.7 °F 91% 30.12 in 7.0 mi ESE 4.6 mph - N/A   Scattered Clouds
4:58 AM 56.1 °F - 52.5 °F 88% 30.13 in 7.0 mi East 3.5 mph - N/A   Mostly Cloudy
5:58 AM 53.6 °F - 51.1 °F 91% 30.14 in 6.0 mi Calm Calm - N/A   Scattered Clouds
6:58 AM 52.2 °F - 50.9 °F 95% 30.14 in 10.0 mi ESE 3.5 mph - N/A   Mostly Cloudy
7:58 AM 54.9 °F - 52.3 °F 91% 30.16 in 10.0 mi East 2.3 mph - N/A   Mostly Cloudy
8:58 AM 60.6 °F - 54.3 °F 80% 30.16 in 10.0 mi SSE 5.8 mph - N/A   Mostly Cloudy
9:58 AM 64.8 °F - 54.5 °F 69% 30.17 in 7.0 mi South 5.8 mph - 0.00 in   Scattered Clouds
10:58 AM 71.2 °F - 55.2 °F 57% 30.16 in 10.0 mi South 8.1 mph - N/A   Mostly Cloudy
11:58 AM 76.6 °F - 54.1 °F 46% 30.14 in 10.0 mi South 12.7 mph 19.6 mph N/A   Mostly Cloudy
12:58 PM 79.0 °F - 55.8 °F 45% 30.11 in 10.0 mi South 15.0 mph 23.0 mph N/A   Mostly Cloudy
1:58 PM 80.4 °F 80.1 °F 53.2 °F 39% 30.08 in 10.0 mi SSW 16.1 mph 26.5 mph N/A   Scattered Clouds
2:58 PM 82.6 °F - 51.8 °F 34% 30.06 in 10.0 mi South 12.7 mph - N/A   Scattered Clouds
3:58 PM 82.6 °F - 49.5 °F 31% 30.05 in 10.0 mi SSW 10.4 mph 20.7 mph N/A   Mostly Cloudy
4:58 PM 81.0 °F - 50.0 °F 34% 30.05 in 10.0 mi SSW 8.1 mph - N/A   Scattered Clouds
5:58 PM 77.4 °F - 52.9 °F 42% 30.06 in 10.0 mi South 8.1 mph - N/A   Scattered Clouds
6:58 PM 72.9 °F - 56.1 °F 56% 30.06 in 10.0 mi SSE 12.7 mph - N/A   Scattered Clouds
7:58 PM 70.2 °F - 58.6 °F 67% 30.06 in 10.0 mi SSE 16.1 mph 23.0 mph N/A   Scattered Clouds
8:58 PM 68.7 °F - 61.3 °F 77% 30.06 in 10.0 mi South 13.8 mph 20.7 mph N/A   Scattered Clouds
9:58 PM 67.8 °F - 62.2 °F 82% 30.06 in 10.0 mi South 10.4 mph 19.6 mph N/A   Scattered Clouds
10:58 PM 66.4 °F - 62.4 °F 87% 30.06 in 10.0 mi SSE 9.2 mph - N/A   Scattered Clouds
11:28 PM 66.2 °F - 64.4 °F 94% 30.03 in 10.0 mi South 12.7 mph 21.9 mph N/A   Mostly Cloudy
11:58 PM 66.0 °F - 63.7 °F 92% 30.01 in 10.0 mi South 16.1 mph - N/A   Mostly Cloudy